FOX-1D (AO-92) (43137 NORAD) Tracking and Keplerian Element Data

This shows tracking and keplerian element data for the satellite.

Feedback or suggestion? Click here.




ElementValue
Catalog43137
NameFOX-1D (AO-92)
Epoch Orbit7043
Epoch Day110.18469022
Epoch Year2019
RAAN178.1083
Inclination97.4922
Eccentricity0.0011024
Argument of Perigee103.7367
Mean Anonmoly256.5098
Mean Motion15.23334485
Decay Rate1.001E-05
L11 43137U 18004AC 19110.18469022 .00001001 00000-0 45153-4 0 9999
L22 43137 97.4922 178.1083 0011024 103.7367 256.5098 15.23334485 70433

Live tracking and technical data element details for FOX-1D (AO-92) (NORAD 43137). FOX-1D (AO-92) can be tracked NOW for your location showing map with azimuth and elevation plus other details from your city location.

Track the satellite on the map from your city or location and see movement details for azimuth, elevation, latitude, longitude, range, height, and movement on the map or in text.







IsCatalogInMostPopularTable: catalog: 43137, numindb: 980
Update: records affected: 1



GetName: 43137 FOX-1D (AO-92)

Hit Count: updated at: Sat, 20 Apr 2019 21:19:56 GMT